,,Stat1,,Stat2,,Stat3,,Stat4,,Wind1,,Wind1,
time,status,PR1M_SUM,status,RH1M_AVG,status,SR1M_AVG,status,TA1M_AVG,status,W1dAve1m,status,W1sAve1m,
2000-02-22, 00:01:00,VALID,0,VALID,89.5489,VALID,0,VALID,19.8814,VALID,100,VALID,0.766681,
2000-02-22, 00:02:00,VALID,0,VALID,89.5706,VALID,-0.0169808,VALID,19.9335,VALID,104,VALID,0.690878,
2000-02-22, 00:03:00,VALID,0,VALID,89.3506,VALID,0,VALID,19.9621,VALID,106,VALID,0.622266,
2000-02-22, 00:04:01,VALID,0,VALID,89.3938,VALID,0,VALID,19.982,VALID,101,VALID,0.205322,
2000-02-22, 00:05:00,VALID,0,VALID,89.3239,VALID,0,VALID,19.9981,VALID,101,VALID,0.25359,
2000-02-22, 00:06:00,VALID,0,VALID,89.1179,VALID,0,VALID,20.0113,VALID,101,VALID,0.171224,
2000-02-22, 00:07:00,VALID,0,VALID,89.4879,VALID,0,VALID,19.9919,VALID,100,VALID,0.025641,
2000-02-22, 00:08:00,VALID,0,VALID,89.3442,VALID,0,VALID,19.9753,VALID,92,VALID,0.436553,
2000-02-22, 00:09:00,VALID,0,VALID,88.9882,VALID,-0.0169808,VALID,19.9653,VALID,90,VALID,1.03678,
2000-02-22, 00:10:00,VALID,0,VALID,89.0988,VALID,0,VALID,19.985,VALID,93,VALID,1.29384,
2000-02-22, 00:11:00,VALID,0,VALID,88.8826,VALID,0,VALID,19.989,VALID,90,VALID,1.18926,
2000-02-22, 00:12:00,VALID,0,VALID,88.9462,VALID,0,VALID,19.9885,VALID,97,VALID,0.9884,
2000-02-22, 00:13:00,VALID,0,VALID,88.8356,VALID,0,VALID,19.9882,VALID,93,VALID,1.04745,
2000-02-22, 00:14:00,VALID,0,VALID,88.6385,VALID,-0.0339617,VALID,19.9885,VALID,81,VALID,0.884332,
2000-02-22, 00:15:01,VALID,0,VALID,88.6308,VALID,0,VALID,19.9947,VALID,95,VALID,1.0875,
2000-02-22, 00:16:00,VALID,0,VALID,88.6207,VALID,0,VALID,19.9815,VALID,80,VALID,1.0071,
2000-02-22, 00:17:00,VALID,0,VALID,88.4757,VALID,0,VALID,19.972,VALID,88,VALID,1.37824,
2000-02-22, 00:18:00,VALID,0,VALID,88.4465,VALID,0,VALID,19.9723,VALID,89,VALID,1.32791,
2000-02-22, 00:19:00,VALID,0,VALID,88.7771,VALID,0,VALID,19.9554,VALID,92,VALID,1.29043,
2000-02-22, 00:20:00,VALID,0,VALID,88.8686,VALID,0.0169808,VALID,19.9333,VALID,83,VALID,1.18111,
2000-02-22, 00:21:00,VALID,0,VALID,88.9487,VALID,-0.0169808,VALID,19.9112,VALID,85,VALID,1.56631,
2000-02-22, 00:22:00,VALID,0,VALID,89.2043,VALID,0,VALID,19.8814,VALID,83,VALID,1.37326,
2000-02-22, 00:23:00,VALID,0,VALID,89.0873,VALID,0.0169808,VALID,19.8816,VALID,79,VALID,1.38691,
2000-02-22, 00:24:00,VALID,0,VALID,88.9589,VALID,0,VALID,19.9007,VALID,88,VALID,1.17827,
2000-02-22, 00:25:00,VALID,0,VALID,88.7364,VALID,0,VALID,19.9303,VALID,73,VALID,1.35575,
2000-02-22, 00:26:00,VALID,0,VALID,88.6067,VALID,0,VALID,19.9591,VALID,84,VALID,1.36437,
2000-02-22, 00:27:00,VALID,0,VALID,88.6486,VALID,0,VALID,19.9656,VALID,83,VALID,0.990234,
2000-02-22, 00:28:00,VALID,0,VALID,88.7822,VALID,0,VALID,19.9584,VALID,65,VALID,1.02841,
2000-02-22, 00:29:00,VALID,0,VALID,88.7593,VALID,0,VALID,19.9718,VALID,85,VALID,1.06593,
2000-02-22, 00:30:00,VALID,0,VALID,88.6105,VALID,0,VALID,19.985,VALID,58,VALID,0.777561,
2000-02-22, 00:31:00,VALID,0,VALID,88.6715,VALID,-0.0339617,VALID,19.9914,VALID,84,VALID,0.727539,
2000-02-22, 00:32:00,VALID,0,VALID,88.5901,VALID,-0.101885,VALID,19.9924,VALID,76,VALID,0.522017,
2000-02-22, 00:33:00,VALID,0,VALID,88.7288,VALID,-0.101885,VALID,20.0049,VALID,96,VALID,0.0243902,
2000-02-22, 00:34:00,VALID,0,VALID,88.7567,VALID,-0.118866,VALID,20.0121,VALID,124,VALID,0.000434028,
2000-02-22, 00:35:00,VALID,0,VALID,88.9284,VALID,-0.101885,VALID,20.0021,VALID,256,VALID,0.320313,
2000-02-22, 00:36:00,VALID,0,VALID,89.0301,VALID,-0.101885,VALID,20.0026,VALID,271,VALID,0.132102,
2000-02-22, 00:37:01,VALID,0,VALID,89.4281,VALID,-0.101885,VALID,19.983,VALID,272,VALID,0.0163872,
2000-02-22, 00:38:00,VALID,0,VALID,89.8541,VALID,-0.101885,VALID,19.9703,VALID,178,VALID,0.36263,
2000-02-22, 00:39:00,VALID,0,VALID,90.0843,VALID,-0.101885,VALID,19.9512,VALID,102,VALID,0.112695,
2000-02-22, 00:40:00,VALID,0,VALID,90.2547,VALID,-0.101885,VALID,19.9181,VALID,101,VALID,0,
2000-02-22, 00:41:00,VALID,0,VALID,90.2216,VALID,-0.0849042,VALID,19.8993,VALID,101,VALID,0,
2000-02-22, 00:42:00,VALID,0,VALID,90.1428,VALID,-0.101885,VALID,19.8761,VALID,101,VALID,0,
2000-02-22, 00:43:00,VALID,0,VALID,90.1936,VALID,-0.0849042,VALID,19.8667,VALID,101,VALID,0,
2000-02-22, 00:44:00,VALID,0,VALID,90.4912,VALID,-0.101885,VALID,19.8471,VALID,101,VALID,0,
2000-02-22, 00:45:00,VALID,0,VALID,90.5929,VALID,-0.101885,VALID,19.8443,VALID,101,VALID,0,
2000-02-22, 00:46:00,VALID,0,VALID,90.8879,VALID,-0.101885,VALID,19.815,VALID,101,VALID,0,
2000-02-22, 00:47:01,VALID,0,VALID,91.1435,VALID,-0.101885,VALID,19.7996,VALID,101,VALID,0,
2000-02-22, 00:48:01,VALID,0,VALID,91.1524,VALID,-0.101885,VALID,19.776,VALID,101,VALID,0,
2000-02-22, 00:49:00,VALID,0,VALID,91.0672,VALID,-0.101885,VALID,19.7631,VALID,101,VALID,0,
2000-02-22, 00:50:00,VALID,0,VALID,91.0609,VALID,-0.101885,VALID,19.7571,VALID,101,VALID,0,
2000-02-22, 00:51:00,VALID,0,VALID,91.492,VALID,-0.0679233,VALID,19.7502,VALID,101,VALID,0,
2000-02-22, 00:52:00,VALID,0,VALID,91.5403,VALID,-0.0849042,VALID,19.7504,VALID,101,VALID,0,
2000-02-22, 00:53:00,VALID,0,VALID,91.4563,VALID,-0.0679233,VALID,19.7407,VALID,133,VALID,0,
2000-02-22, 00:54:00,VALID,0,VALID,91.361,VALID,-0.0849042,VALID,19.7278,VALID,162,VALID,0,
2000-02-22, 00:55:00,VALID,0,VALID,91.4004,VALID,-0.0849042,VALID,19.702,VALID,162,VALID,0,
2000-02-22, 00:56:00,VALID,0,VALID,91.5988,VALID,-0.0849042,VALID,19.6888,VALID,162,VALID,0,
2000-02-22, 00:57:00,VALID,0,VALID,91.4042,VALID,-0.101885,VALID,19.6731,VALID,162,VALID,0,
2000-02-22, 00:58:00,VALID,0,VALID,91.2834,VALID,-0.101885,VALID,19.6634,VALID,162,VALID,0,
2000-02-22, 00:59:01,VALID,0,VALID,91.7183,VALID,-0.0849042,VALID,19.647,VALID,162,VALID,0,
2000-02-22, 01:00:00,VALID,0,VALID,91.6725,VALID,-0.101885,VALID,19.6242,VALID,167,VALID,0,
2000-02-22, 01:01:00,VALID,0,VALID,91.8645,VALID,-0.101885,VALID,19.6051,VALID,205,VALID,0,
2000-02-22, 01:02:00,VALID,0,VALID,91.9103,VALID,-0.101885,VALID,19.5862,VALID,208,VALID,0,
2000-02-22, 01:03:00,VALID,0,VALID,91.8493,VALID,-0.0849042,VALID,19.5668,VALID,209,VALID,0,
2000-02-22, 01:04:00,VALID,0,VALID,91.8366,VALID,-0.101885,VALID,19.5375,VALID,209,VALID,0,
2000-02-22, 01:05:00,VALID,0,VALID,92.2104,VALID,-0.0849042,VALID,19.5474,VALID,211,VALID,0,
2000-02-22, 01:06:00,VALID,0,VALID,92.2498,VALID,-0.101885,VALID,19.5377,VALID,205,VALID,0,
2000-02-22, 01:07:00,VALID,0,VALID,92.4622,VALID,-0.0849042,VALID,19.5313,VALID,170,VALID,0,
2000-02-22, 01:08:00,VALID,0,VALID,92.5652,VALID,-0.0679233,VALID,19.5049,VALID,160,VALID,0,
2000-02-22, 01:09:00,VALID,0,VALID,92.733,VALID,-0.101885,VALID,19.4855,VALID,160,VALID,0,
2000-02-22, 01:10:01,VALID,0,VALID,92.7559,VALID,-0.101885,VALID,19.4632,VALID,160,VALID,0,
2000-02-22, 01:11:00,VALID,0,VALID,92.8004,VALID,-0.0679233,VALID,19.4567,VALID,160,VALID,0,
2000-02-22, 01:12:00,VALID,0,VALID,92.8869,VALID,-0.101885,VALID,19.4436,VALID,156,VALID,0,
2000-02-22, 01:13:00,VALID,0,VALID,92.5423,VALID,-0.118866,VALID,19.4373,VALID,156,VALID,0,
2000-02-22, 01:14:00,VALID,0,VALID,92.4647,VALID,-0.101885,VALID,19.4537,VALID,156,VALID,0,
2000-02-22, 01:15:00,VALID,0,VALID,92.3859,VALID,-0.0849042,VALID,19.4831,VALID,156,VALID,0,
2000-02-22, 01:16:00,VALID,0,VALID,92.5512,VALID,-0.101885,VALID,19.5019,VALID,156,VALID,0,
2000-02-22, 01:17:00,VALID,0,VALID,92.7012,VALID,-0.101885,VALID,19.4893,VALID,156,VALID,0,
2000-02-22, 01:18:00,VALID,0,VALID,92.9467,VALID,-0.0849042,VALID,19.4734,VALID,156,VALID,0,
2000-02-22, 01:19:01,VALID,0,VALID,93.112,VALID,-0.0849042,VALID,19.4669,VALID,156,VALID,0,
2000-02-22, 01:20:00,VALID,0,VALID,92.9594,VALID,-0.101885,VALID,19.447,VALID,156,VALID,0,
2000-02-22, 01:21:01,VALID,0,VALID,92.9098,VALID,-0.0679233,VALID,19.4473,VALID,156,VALID,0,
2000-02-22, 01:22:00,VALID,0,VALID,93.0242,VALID,-0.0509425,VALID,19.46,VALID,180,VALID,0,
2000-02-22, 01:23:00,VALID,0,VALID,92.8869,VALID,-0.0849042,VALID,19.4761,VALID,269,VALID,0.075,
2000-02-22, 01:24:00,VALID,0,VALID,92.8767,VALID,-0.0849042,VALID,19.4826,VALID,298,VALID,0.0179924,
2000-02-22, 01:25:00,VALID,0,VALID,92.7432,VALID,-0.101885,VALID,19.4957,VALID,298,VALID,0,
2000-02-22, 01:26:00,VALID,0,VALID,92.9759,VALID,-0.0849042,VALID,19.5054,VALID,307,VALID,0,
2000-02-22, 01:27:00,VALID,0,VALID,93.145,VALID,-0.0849042,VALID,19.5248,VALID,326,VALID,0.118164,
2000-02-22, 01:28:00,VALID,0,VALID,93.2073,VALID,-0.101885,VALID,19.5183,VALID,89,VALID,0.372396,
2000-02-22, 01:29:00,VALID,0,VALID,93.1717,VALID,-0.101885,VALID,19.5186,VALID,118,VALID,0.0472561,
2000-02-22, 01:30:00,VALID,0,VALID,93.0357,VALID,-0.101885,VALID,19.4863,VALID,118,VALID,0,
2000-02-22, 01:31:01,VALID,0,VALID,92.7826,VALID,-0.0679233,VALID,19.486,VALID,125,VALID,0,
2000-02-22, 01:32:01,VALID,0,VALID,92.4075,VALID,0,VALID,19.5039,VALID,286,VALID,0.0411932,
2000-02-22, 01:33:00,VALID,0,VALID,92.2524,VALID,0,VALID,19.5365,VALID,123,VALID,0.217988,
2000-02-22, 01:34:00,VALID,0,VALID,92.0273,VALID,0,VALID,19.5912,VALID,127,VALID,0,
2000-02-22, 01:35:00,VALID,0,VALID,91.806,VALID,0,VALID,19.6297,VALID,127,VALID,0,
2000-02-22, 01:36:00,VALID,0,VALID,91.6369,VALID,0,VALID,19.6915,VALID,33,VALID,0.171402,
2000-02-22, 01:37:00,VALID,0,VALID,91.3661,VALID,0,VALID,19.74,VALID,295,VALID,0,
2000-02-22, 01:38:00,VALID,0,VALID,91.717,VALID,0.0169808,VALID,19.775,VALID,331,VALID,0.0961372,
2000-02-22, 01:39:00,VALID,0,VALID,92.1392,VALID,0.0169808,VALID,19.7688,VALID,13,VALID,0.0388672,
2000-02-22, 01:40:00,VALID,0,VALID,92.2854,VALID,0,VALID,19.7527,VALID,79,VALID,0.293087,
2000-02-22, 01:41:00,VALID,0,VALID,92.1061,VALID,0.0169808,VALID,19.7559,VALID,96,VALID,0.612233,
2000-02-22, 01:42:00,VALID,0,VALID,91.9663,VALID,0,VALID,19.7233,VALID,93,VALID,0.513021,
2000-02-22, 01:43:01,VALID,0,VALID,91.8124,VALID,0.0339617,VALID,19.694,VALID,93,VALID,0.266016,
2000-02-22, 01:44:00,VALID,0,VALID,92.0591,VALID,0.0339617,VALID,19.6714,VALID,94,VALID,0.322206,
2000-02-22, 01:45:00,VALID,0,VALID,92.3274,VALID,0,VALID,19.649,VALID,93,VALID,0.301639,
2000-02-22, 01:46:00,VALID,0,VALID,92.2587,VALID,0,VALID,19.6264,VALID,89,VALID,0.468533,
2000-02-22, 01:47:00,VALID,0,VALID,92.3147,VALID,0,VALID,19.6075,VALID,98,VALID,0.386133,
2000-02-22, 01:48:00,VALID,0,VALID,92.5092,VALID,0.0169808,VALID,19.6046,VALID,98,VALID,0.242661,
2000-02-22, 01:49:00,VALID,0,VALID,92.6428,VALID,0.0509425,VALID,19.6105,VALID,98,VALID,0.0335366,
2000-02-22, 01:50:00,VALID,0,VALID,92.6313,VALID,0,VALID,19.617,VALID,107,VALID,0,
2000-02-22, 01:51:00,VALID,0,VALID,92.7445,VALID,0.0509425,VALID,19.6433,VALID,179,VALID,0.0873047,
2000-02-22, 01:52:00,VALID,0,VALID,92.5436,VALID,0.0339617,VALID,19.6237,VALID,261,VALID,0.304924,
2000-02-22, 01:53:00,VALID,0,VALID,92.5487,VALID,0,VALID,19.614,VALID,272,VALID,0.128811,
2000-02-22, 01:54:01,VALID,0,VALID,92.5944,VALID,0.0339617,VALID,19.6135,VALID,272,VALID,0,
2000-02-22, 01:55:00,VALID,0,VALID,92.6923,VALID,0.0169808,VALID,19.6235,VALID,245,VALID,0.102539,
2000-02-22, 01:56:00,VALID,0,VALID,92.7318,VALID,0.0169808,VALID,19.6334,VALID,217,VALID,0.233191,
2000-02-22, 01:57:00,VALID,0,VALID,92.8716,VALID,0.0169808,VALID,19.6304,VALID,204,VALID,0.181021,
2000-02-22, 01:58:00,VALID,0,VALID,93.1412,VALID,0.0339617,VALID,19.617,VALID,199,VALID,0.0284288,
2000-02-22, 01:59:00,VALID,0,VALID,93.4413,VALID,0.0339617,VALID,19.6297,VALID,199,VALID,0,
2000-02-22, 02:00:00,VALID,0,VALID,93.1946,VALID,0,VALID,19.617,VALID,199,VALID,0,
2000-02-22, 02:01:00,VALID,0,VALID,93.3968,VALID,-0.0169808,VALID,19.614,VALID,199,VALID,0,
2000-02-22, 02:02:00,VALID,0,VALID,93.2633,VALID,-0.101885,VALID,19.6217,VALID,199,VALID,0,
2000-02-22, 02:03:01,VALID,0,VALID,92.8691,VALID,-0.101885,VALID,19.6217,VALID,199,VALID,0,
2000-02-22, 02:04:00,VALID,0,VALID,92.9975,VALID,-0.0849042,VALID,19.619,VALID,213,VALID,0.0267519,
2000-02-22, 02:05:00,VALID,0,VALID,92.8551,VALID,-0.101885,VALID,19.5926,VALID,235,VALID,0.565549,
2000-02-22, 02:06:00,VALID,0,VALID,92.9416,VALID,-0.101885,VALID,19.5695,VALID,239,VALID,0.340929,
2000-02-22, 02:07:00,VALID,0,VALID,92.9428,VALID,-0.101885,VALID,19.5772,VALID,241,VALID,0.00976563,
2000-02-22, 02:08:00,VALID,0,VALID,92.9276,VALID,-0.101885,VALID,19.5608,VALID,241,VALID,0,
2000-02-22, 02:09:00,VALID,0,VALID,93.3434,VALID,-0.101885,VALID,19.5638,VALID,241,VALID,0,
2000-02-22, 02:10:00,VALID,0,VALID,93.5291,VALID,-0.118866,VALID,19.5673,VALID,241,VALID,0,
2000-02-22, 02:11:00,VALID,0,VALID,93.4769,VALID,-0.0849042,VALID,19.5571,VALID,241,VALID,0,
2000-02-22, 02:12:00,VALID,0,VALID,93.3688,VALID,-0.101885,VALID,19.5509,VALID,241,VALID,0,
2000-02-22, 02:13:00,VALID,0,VALID,93.2468,VALID,-0.101885,VALID,19.5541,VALID,241,VALID,0.0142912,
2000-02-22, 02:14:00,VALID,0,VALID,93.2989,VALID,-0.101885,VALID,19.5477,VALID,241,VALID,0.00868056,
2000-02-22, 02:15:01,VALID,0,VALID,93.3803,VALID,-0.0849042,VALID,19.5417,VALID,198,VALID,0.228906,
2000-02-22, 02:16:00,VALID,0,VALID,93.7897,VALID,-0.0849042,VALID,19.4731,VALID,161,VALID,0.0767045,
2000-02-22, 02:17:00,VALID,0,VALID,93.95,VALID,0,VALID,19.4394,VALID,165,VALID,0.150534,
2000-02-22, 02:18:00,VALID,0,VALID,94.0301,VALID,0.0169808,VALID,19.41,VALID,164,VALID,0.0292969,
2000-02-22, 02:19:00,VALID,0,VALID,94.1585,VALID,0.0169808,VALID,19.3616,VALID,164,VALID,0,
2000-02-22, 02:20:00,VALID,0,VALID,94.259,VALID,0.0509425,VALID,19.3459,VALID,164,VALID,0,
2000-02-22, 02:21:00,VALID,0,VALID,94.3772,VALID,0.0169808,VALID,19.3298,VALID,164,VALID,0,
2000-02-22, 02:22:00,VALID,0,VALID,94.4128,VALID,0.0339617,VALID,19.3231,VALID,164,VALID,0,
2000-02-22, 02:23:00,VALID,0,VALID,94.4077,VALID,0.0509425,VALID,19.3266,VALID,164,VALID,0,
2000-02-22, 02:24:00,VALID,0,VALID,94.3556,VALID,0.0339617,VALID,19.3263,VALID,169,VALID,0,
2000-02-22, 02:25:00,VALID,0,VALID,94.4421,VALID,0.0339617,VALID,19.3554,VALID,210,VALID,0,
2000-02-22, 02:26:00,VALID,0,VALID,94.4344,VALID,0.0679233,VALID,19.3492,VALID,213,VALID,0,
2000-02-22, 02:27:00,VALID,0,VALID,94.3162,VALID,0.0339617,VALID,19.3621,VALID,213,VALID,0,
2000-02-22, 02:28:00,VALID,0,VALID,94.2017,VALID,0.0169808,VALID,19.3755,VALID,214,VALID,0,
2000-02-22, 02:29:00,VALID,0,VALID,94.1763,VALID,0.0339617,VALID,19.3817,VALID,214,VALID,0,
2000-02-22, 02:30:00,VALID,0,VALID,94.203,VALID,0.0509425,VALID,19.4013,VALID,213,VALID,0,
2000-02-22, 02:31:00,VALID,0,VALID,94.2615,VALID,0.0169808,VALID,19.3981,VALID,155,VALID,0.0902344,
2000-02-22, 02:32:00,VALID,0,VALID,94.2882,VALID,-0.0679233,VALID,19.3829,VALID,122,VALID,0,
2000-02-22, 02:33:00,VALID,0,VALID,94.2793,VALID,-0.0679233,VALID,19.3442,VALID,122,VALID,0,
2000-02-22, 02:34:00,VALID,0,VALID,94.3365,VALID,-0.0849042,VALID,19.3124,VALID,122,VALID,0,
2000-02-22, 02:35:00,VALID,0,VALID,94.5527,VALID,-0.0849042,VALID,19.2763,VALID,122,VALID,0,
2000-02-22, 02:36:00,VALID,0,VALID,94.6265,VALID,-0.0169808,VALID,19.2696,VALID,122,VALID,0,
2000-02-22, 02:37:00,VALID,0,VALID,94.6036,VALID,-0.0509425,VALID,19.2565,VALID,122,VALID,0,
2000-02-22, 02:38:00,VALID,0,VALID,94.6392,VALID,-0.101885,VALID,19.2373,VALID,122,VALID,0,
2000-02-22, 02:39:00,VALID,0,VALID,94.746,VALID,-0.0339617,VALID,19.2304,VALID,122,VALID,0,
2000-02-22, 02:40:00,VALID,0,VALID,94.7256,VALID,-0.0509425,VALID,19.2572,VALID,122,VALID,0,
2000-02-22, 02:41:00,VALID,0,VALID,94.6837,VALID,-0.0849042,VALID,19.2639,VALID,122,VALID,0,
2000-02-22, 02:42:00,VALID,0,VALID,94.6532,VALID,-0.0849042,VALID,19.257,VALID,157,VALID,0,
2000-02-22, 02:43:00,VALID,0,VALID,94.6074,VALID,-0.0679233,VALID,19.244,VALID,162,VALID,0,
2000-02-22, 02:44:00,VALID,0,VALID,94.7256,VALID,-0.101885,VALID,19.2316,VALID,162,VALID,0,
2000-02-22, 02:45:00,VALID,0,VALID,94.8363,VALID,-0.101885,VALID,19.2226,VALID,162,VALID,0,
2000-02-22, 02:46:00,VALID,0,VALID,94.8604,VALID,-0.0849042,VALID,19.2055,VALID,162,VALID,0,
2000-02-22, 02:47:01,VALID,0,VALID,94.8859,VALID,0.0169808,VALID,19.2011,VALID,162,VALID,0,
2000-02-22, 02:48:00,VALID,0,VALID,94.9011,VALID,0,VALID,19.1946,VALID,162,VALID,0,
2000-02-22, 02:49:00,VALID,0,VALID,94.9151,VALID,0.0169808,VALID,19.1884,VALID,162,VALID,0,
2000-02-22, 02:50:00,VALID,0,VALID,95.0219,VALID,0.0169808,VALID,19.1685,VALID,162,VALID,0,
2000-02-22, 02:51:00,VALID,0,VALID,95.219,VALID,0,VALID,19.166,VALID,169,VALID,0,
2000-02-22, 02:52:00,VALID,0,VALID,95.3665,VALID,0.0169808,VALID,19.1529,VALID,171,VALID,0,
2000-02-22, 02:53:00,VALID,0,VALID,95.4021,VALID,-0.0169808,VALID,19.1497,VALID,171,VALID,0,
2000-02-22, 02:54:00,VALID,0,VALID,95.3424,VALID,0.0339617,VALID,19.1593,VALID,198,VALID,0,
2000-02-22, 02:55:00,VALID,0,VALID,95.2101,VALID,0.0509425,VALID,19.1656,VALID,211,VALID,0,
2000-02-22, 02:56:00,VALID,0,VALID,95.1682,VALID,0.0169808,VALID,19.1593,VALID,212,VALID,0,
2000-02-22, 02:57:00,VALID,0,VALID,95.2432,VALID,0,VALID,19.1626,VALID,212,VALID,0,
2000-02-22, 02:58:00,VALID,0,VALID,95.3169,VALID,0.0169808,VALID,19.1462,VALID,212,VALID,0,
2000-02-22, 02:59:01,VALID,0,VALID,95.3322,VALID,0.0169808,VALID,19.1462,VALID,212,VALID,0,
2000-02-22, 03:00:00,VALID,0,VALID,95.2877,VALID,0,VALID,19.143,VALID,212,VALID,0,
2000-02-22, 03:01:00,VALID,0,VALID,95.2368,VALID,0.0169808,VALID,19.1434,VALID,212,VALID,0,
2000-02-22, 03:02:00,VALID,0,VALID,95.1987,VALID,0,VALID,19.1335,VALID,212,VALID,0,
2000-02-22, 03:03:00,VALID,0,VALID,95.2432,VALID,0.0169808,VALID,19.13,VALID,212,VALID,0,
2000-02-22, 03:04:00,VALID,0,VALID,95.2584,VALID,0.0339617,VALID,19.137,VALID,210,VALID,0,
2000-02-22, 03:05:00,VALID,0,VALID,95.0842,VALID,0,VALID,19.127,VALID,163,VALID,0,
2000-02-22, 03:06:00,VALID,0,VALID,94.9952,VALID,0.0169808,VALID,19.1081,VALID,161,VALID,0,
2000-02-22, 03:07:00,VALID,0,VALID,95.0207,VALID,0,VALID,19.0692,VALID,161,VALID,0,
2000-02-22, 03:08:00,VALID,0,VALID,95.1465,VALID,0,VALID,19.0202,VALID,161,VALID,0,
2000-02-22, 03:09:00,VALID,0,VALID,95.35,VALID,0,VALID,18.9981,VALID,161,VALID,0,
2000-02-22, 03:10:00,VALID,0,VALID,95.5229,VALID,0,VALID,18.9782,VALID,161,VALID,0,
2000-02-22, 03:11:00,VALID,0,VALID,95.5878,VALID,0.0169808,VALID,18.9785,VALID,161,VALID,0,
2000-02-22, 03:12:00,VALID,0,VALID,95.5573,VALID,0,VALID,18.975,VALID,161,VALID,0,
2000-02-22, 03:13:00,VALID,0,VALID,95.5649,VALID,0.0169808,VALID,18.9584,VALID,161,VALID,0,
2000-02-22, 03:14:00,VALID,0,VALID,95.6882,VALID,0.0679233,VALID,18.9494,VALID,161,VALID,0,
2000-02-22, 03:15:00,VALID,0,VALID,95.6679,VALID,0.0169808,VALID,18.9328,VALID,161,VALID,0,
2000-02-22, 03:16:00,VALID,0,VALID,95.5382,VALID,0.0169808,VALID,18.9238,VALID,161,VALID,0,
2000-02-22, 03:17:00,VALID,0,VALID,95.4822,VALID,-0.101885,VALID,18.9153,VALID,161,VALID,0,
2000-02-22, 03:18:00,VALID,0,VALID,95.5102,VALID,-0.101885,VALID,18.9022,VALID,158,VALID,0,
2000-02-22, 03:19:00,VALID,0,VALID,95.645,VALID,-0.0679233,VALID,18.8763,VALID,132,VALID,0,
2000-02-22, 03:20:00,VALID,0,VALID,95.8879,VALID,-0.0849042,VALID,18.8636,VALID,116,VALID,0.280777,
2000-02-22, 03:21:01,VALID,0,VALID,95.9578,VALID,-0.0849042,VALID,18.8574,VALID,114,VALID,0.0579268,
2000-02-22, 03:22:00,VALID,0,VALID,96.1041,VALID,-0.0509425,VALID,18.8473,VALID,114,VALID,0.00108507,
2000-02-22, 03:23:00,VALID,0,VALID,96.1091,VALID,-0.0849042,VALID,18.8639,VALID,114,VALID,0,
2000-02-22, 03:24:00,VALID,0,VALID,96.0074,VALID,-0.0849042,VALID,18.8572,VALID,114,VALID,0.13518,
2000-02-22, 03:25:00,VALID,0,VALID,95.893,VALID,-0.101885,VALID,18.848,VALID,114,VALID,0.0200076,
2000-02-22, 03:26:00,VALID,0,VALID,95.8103,VALID,-0.0849042,VALID,18.8122,VALID,105,VALID,0.226345,
2000-02-22, 03:27:00,VALID,0,VALID,96.0875,VALID,-0.101885,VALID,18.7896,VALID,96,VALID,0.58418,
2000-02-22, 03:28:00,VALID,0,VALID,96.2261,VALID,-0.101885,VALID,18.7702,VALID,100,VALID,0.409801,
2000-02-22, 03:29:00,VALID,0,VALID,96.3724,VALID,-0.0849042,VALID,18.77,VALID,109,VALID,0.436928,
2000-02-22, 03:30:00,VALID,0,VALID,96.4703,VALID,-0.0679233,VALID,18.7668,VALID,109,VALID,0.415148,
2000-02-22, 03:31:01,VALID,0,VALID,96.544,VALID,-0.101885,VALID,18.7797,VALID,109,VALID,0.377148,
2000-02-22, 03:32:00,VALID,0,VALID,96.5898,VALID,-0.0849042,VALID,18.7896,VALID,101,VALID,0.407907,
2000-02-22, 03:33:00,VALID,0,VALID,96.4792,VALID,-0.0849042,VALID,18.8023,VALID,92,VALID,0.252477,
2000-02-22, 03:34:00,VALID,0,VALID,96.394,VALID,-0.0509425,VALID,18.8219,VALID,96,VALID,0.0412326,
2000-02-22, 03:35:00,VALID,0,VALID,96.3647,VALID,-0.101885,VALID,18.8184,VALID,99,VALID,0,
2000-02-22, 03:36:00,VALID,0,VALID,96.427,VALID,-0.101885,VALID,18.845,VALID,104,VALID,0,
2000-02-22, 03:37:00,VALID,0,VALID,96.3838,VALID,-0.101885,VALID,18.8381,VALID,104,VALID,0,
2000-02-22, 03:38:00,VALID,0,VALID,96.3304,VALID,-0.101885,VALID,18.8445,VALID,104,VALID,0,
2000-02-22, 03:39:00,VALID,0,VALID,96.3533,VALID,-0.0849042,VALID,18.8636,VALID,102,VALID,0,
2000-02-22, 03:40:00,VALID,0,VALID,96.1994,VALID,-0.101885,VALID,18.8833,VALID,90,VALID,0.146307,
2000-02-22, 03:41:00,VALID,0,VALID,96.1079,VALID,-0.101885,VALID,18.8865,VALID,88,VALID,0.204268,
2000-02-22, 03:42:00,VALID,0,VALID,95.9426,VALID,-0.0849042,VALID,18.8927,VALID,91,VALID,0,
2000-02-22, 03:43:01,VALID,0,VALID,95.9642,VALID,-0.0849042,VALID,18.8999,VALID,92,VALID,0,
2000-02-22, 03:44:00,VALID,0,VALID,96.0672,VALID,-0.0679233,VALID,18.9223,VALID,94,VALID,0,
2000-02-22, 03:45:00,VALID,0,VALID,95.9731,VALID,-0.0849042,VALID,18.9317,VALID,95,VALID,0,
2000-02-22, 03:46:00,VALID,0,VALID,95.9273,VALID,-0.0849042,VALID,18.9479,VALID,95,VALID,0,
2000-02-22, 03:47:00,VALID,0,VALID,95.9082,VALID,0.0169808,VALID,18.9561,VALID,96,VALID,0,
2000-02-22, 03:48:00,VALID,0,VALID,96.0061,VALID,0.0169808,VALID,18.9693,VALID,96,VALID,0,
2000-02-22, 03:49:00,VALID,0,VALID,95.9858,VALID,0,VALID,18.9723,VALID,100,VALID,0,
2000-02-22, 03:50:00,VALID,0,VALID,96.1562,VALID,0.0169808,VALID,18.9914,VALID,83,VALID,0,
2000-02-22, 03:51:00,VALID,0,VALID,96.0061,VALID,0.0339617,VALID,18.9944,VALID,87,VALID,0,
2000-02-22, 03:52:00,VALID,0,VALID,96.0112,VALID,0.0169808,VALID,19.0108,VALID,87,VALID,0,
2000-02-22, 03:53:00,VALID,0,VALID,95.9998,VALID,0.0169808,VALID,19.0103,VALID,87,VALID,0,
2000-02-22, 03:54:00,VALID,0,VALID,95.996,VALID,0,VALID,19.0306,VALID,87,VALID,0,
2000-02-22, 03:55:00,VALID,0,VALID,96.0952,VALID,0.0169808,VALID,19.0463,VALID,87,VALID,0,
2000-02-22, 03:56:00,VALID,0,VALID,95.9972,VALID,0,VALID,19.0495,VALID,191,VALID,0,
2000-02-22, 03:57:00,VALID,0,VALID,95.9031,VALID,0.0169808,VALID,19.0528,VALID,211,VALID,0,
2000-02-22, 03:58:00,VALID,0,VALID,96.0201,VALID,0.0169808,VALID,19.0562,VALID,239,VALID,0,
2000-02-22, 03:59:00,VALID,0,VALID,96.0557,VALID,-0.0169808,VALID,19.0659,VALID,240,VALID,0,
2000-02-22, 04:00:00,VALID,0,VALID,95.9693,VALID,0,VALID,19.0627,VALID,234,VALID,0,
2000-02-22, 04:01:00,VALID,0,VALID,95.9604,VALID,-0.0169808,VALID,19.0625,VALID,204,VALID,0,
2000-02-22, 04:02:00,VALID,0,VALID,95.8993,VALID,-0.0339617,VALID,19.0699,VALID,190,VALID,0,
2000-02-22, 04:03:00,VALID,0,VALID,95.6552,VALID,-0.0169808,VALID,19.0599,VALID,190,VALID,0,
2000-02-22, 04:04:00,VALID,0,VALID,95.5395,VALID,-0.0339617,VALID,19.047,VALID,190,VALID,0,
2000-02-22, 04:05:01,VALID,0,VALID,95.5484,VALID,0,VALID,19.0403,VALID,190,VALID,0,
2000-02-22, 04:06:00,VALID,0,VALID,95.3869,VALID,0,VALID,19.0239,VALID,190,VALID,0,
2000-02-22, 04:07:00,VALID,0,VALID,95.3703,VALID,-0.0339617,VALID,18.9919,VALID,171,VALID,0,
2000-02-22, 04:08:00,VALID,0,VALID,95.5763,VALID,-0.0169808,VALID,18.9797,VALID,155,VALID,0,
2000-02-22, 04:09:00,VALID,0,VALID,95.6615,VALID,-0.0339617,VALID,18.966,VALID,155,VALID,0,
2000-02-22, 04:10:00,VALID,0,VALID,95.7531,VALID,-0.0339617,VALID,18.9596,VALID,155,VALID,0,
2000-02-22, 04:11:00,VALID,0,VALID,95.879,VALID,0,VALID,18.9598,VALID,155,VALID,0,
2000-02-22, 04:12:00,VALID,0,VALID,95.982,VALID,-0.0169808,VALID,18.9764,VALID,155,VALID,0,
2000-02-22, 04:13:00,VALID,0,VALID,96.146,VALID,-0.0339617,VALID,18.9891,VALID,155,VALID,0,
2000-02-22, 04:14:00,VALID,0,VALID,96.2795,VALID,0,VALID,19.0016,VALID,155,VALID,0,